TimeCST,TemperatureF,Dew PointF,Humidity,Sea Level PressureIn,VisibilityMPH,Wind Direction,Wind SpeedMPH,Gust SpeedMPH,PrecipitationIn,Events,Conditions,WindDirDegrees,DateUTC
12:15 AM,19.0,13.3,78,29.94,10.0,Calm,Calm,-,N/A,,Clear,0,2014-02-27 06:15:00
12:35 AM,18.5,13.3,80,29.94,10.0,Calm,Calm,-,N/A,,Clear,0,2014-02-27 06:35:00
12:55 AM,17.6,12.0,79,29.94,10.0,Calm,Calm,-,N/A,,Clear,0,2014-02-27 06:55:00
1:10 AM,17.4,12.4,81,29.94,10.0,Calm,Calm,-,N/A,,Clear,0,2014-02-27 07:10:00
1:35 AM,17.4,12.4,81,29.94,10.0,Calm,Calm,-,N/A,,Clear,0,2014-02-27 07:35:00
1:55 AM,17.4,12.6,81,29.95,10.0,Calm,Calm,-,N/A,,Clear,0,2014-02-27 07:55:00
2:15 AM,17.4,12.6,81,29.94,10.0,Calm,Calm,-,N/A,,Clear,0,2014-02-27 08:15:00
2:35 AM,17.2,12.7,83,29.94,10.0,Calm,Calm,-,N/A,,Clear,0,2014-02-27 08:35:00
2:55 AM,17.1,12.4,82,29.94,10.0,Calm,Calm,-,N/A,,Clear,0,2014-02-27 08:55:00
3:15 AM,17.1,12.2,81,29.94,10.0,Calm,Calm,-,N/A,,Clear,0,2014-02-27 09:15:00
3:35 AM,16.5,11.5,81,29.94,10.0,Calm,Calm,-,N/A,,Clear,0,2014-02-27 09:35:00
3:55 AM,16.7,10.0,75,29.94,10.0,Calm,Calm,-,N/A,,Clear,0,2014-02-27 09:55:00
4:15 AM,15.4,10.9,82,29.94,10.0,Calm,Calm,-,N/A,,Clear,0,2014-02-27 10:15:00
4:35 AM,15.3,10.9,83,29.94,10.0,Calm,Calm,-,N/A,,Clear,0,2014-02-27 10:35:00
4:55 AM,14.9,10.6,83,29.94,10.0,Calm,Calm,-,N/A,,Clear,0,2014-02-27 10:55:00
5:15 AM,14.9,10.4,82,29.94,10.0,Calm,Calm,-,N/A,,Clear,0,2014-02-27 11:15:00
5:35 AM,14.4,10.6,85,29.95,10.0,Calm,Calm,-,N/A,,Clear,0,2014-02-27 11:35:00
5:55 AM,14.5,10.2,83,29.95,10.0,Calm,Calm,-,N/A,,Clear,0,2014-02-27 11:55:00
6:15 AM,14.4,10.0,83,29.96,10.0,Calm,Calm,-,N/A,,Clear,0,2014-02-27 12:15:00
6:35 AM,14.7,10.6,84,29.96,10.0,Calm,Calm,-,N/A,,Clear,0,2014-02-27 12:35:00
6:55 AM,16.2,10.9,80,29.96,10.0,Calm,Calm,-,N/A,,Clear,0,2014-02-27 12:55:00
7:15 AM,18.5,10.8,72,29.97,10.0,Calm,Calm,-,N/A,,Clear,0,2014-02-27 13:15:00
7:35 AM,22.1,8.6,56,29.97,10.0,Calm,Calm,-,N/A,,Clear,0,2014-02-27 13:35:00
7:55 AM,25.2,3.4,39,29.98,10.0,West,5.8,-,N/A,,Clear,270,2014-02-27 13:55:00
8:15 AM,26.6,3.7,38,29.98,10.0,WSW,8.1,-,N/A,,Clear,250,2014-02-27 14:15:00
8:35 AM,28.2,3.9,36,29.98,10.0,West,6.9,18.4,N/A,,Clear,260,2014-02-27 14:35:00
8:55 AM,29.1,5.2,36,29.98,10.0,West,8.1,-,N/A,,Clear,260,2014-02-27 14:55:00
9:15 AM,29.7,5.7,36,29.98,10.0,West,6.9,-,N/A,,Clear,280,2014-02-27 15:15:00
9:35 AM,30.7,7.0,37,29.98,10.0,West,8.1,-,N/A,,Clear,280,2014-02-27 15:35:00
9:55 AM,30.7,6.4,36,29.97,10.0,WNW,4.6,-,N/A,,Clear,290,2014-02-27 15:55:00
10:15 AM,32.0,7.2,35,29.97,10.0,WSW,3.5,-,N/A,,Clear,250,2014-02-27 16:15:00
10:35 AM,35.4,9.7,34,29.96,10.0,WSW,8.1,-,N/A,,Clear,250,2014-02-27 16:35:00
10:55 AM,36.1,9.0,32,29.96,10.0,WSW,9.2,17.3,N/A,,Clear,240,2014-02-27 16:55:00
11:15 AM,37.4,9.5,32,29.95,10.0,West,4.6,-,N/A,,Clear,280,2014-02-27 17:15:00
11:35 AM,37.8,8.8,30,29.95,10.0,West,8.1,-,N/A,,Clear,260,2014-02-27 17:35:00
11:55 AM,37.9,10.2,32,29.95,10.0,West,9.2,-,N/A,,Clear,280,2014-02-27 17:55:00
12:55 PM,39.2,7.7,27,29.93,10.0,NW,9.2,-,N/A,,Clear,320,2014-02-27 18:55:00
1:15 PM,39.4,7.9,27,29.93,10.0,NW,8.1,17.3,N/A,,Clear,310,2014-02-27 19:15:00
1:35 PM,40.8,8.8,27,29.93,10.0,NNW,16.1,20.7,N/A,,Clear,340,2014-02-27 19:35:00
1:55 PM,41.2,8.8,26,29.93,10.0,North,11.5,17.3,N/A,,Clear,350,2014-02-27 19:55:00
2:15 PM,40.6,7.2,25,29.94,10.0,North,10.4,13.8,N/A,,Clear,350,2014-02-27 20:15:00
2:35 PM,40.1,7.2,26,29.94,10.0,NNW,11.5,-,N/A,,Clear,340,2014-02-27 20:35:00
2:55 PM,40.5,8.8,27,29.94,10.0,NW,9.2,18.4,N/A,,Clear,320,2014-02-27 20:55:00
3:15 PM,39.9,6.3,25,29.95,10.0,NW,10.4,-,N/A,,Clear,310,2014-02-27 21:15:00
3:35 PM,39.7,7.9,27,29.95,10.0,NNW,11.5,18.4,N/A,,Clear,340,2014-02-27 21:35:00
3:55 PM,39.4,8.1,27,29.95,10.0,NW,10.4,16.1,N/A,,Clear,320,2014-02-27 21:55:00
4:15 PM,38.3,7.5,28,29.96,10.0,NW,8.1,-,N/A,,Clear,320,2014-02-27 22:15:00
4:35 PM,37.4,7.7,29,29.97,10.0,NNW,9.2,-,N/A,,Clear,330,2014-02-27 22:35:00
4:55 PM,36.7,7.7,30,29.97,10.0,NW,9.2,-,N/A,,Clear,320,2014-02-27 22:55:00
5:15 PM,35.2,7.9,32,29.98,10.0,NNW,6.9,-,N/A,,Clear,330,2014-02-27 23:15:00
5:35 PM,34.7,8.4,33,29.98,10.0,NNW,3.5,-,N/A,,Clear,330,2014-02-27 23:35:00
5:55 PM,33.1,9.3,37,29.99,10.0,NNW,4.6,-,N/A,,Clear,330,2014-02-27 23:55:00
6:15 PM,32.5,9.0,37,29.99,10.0,Calm,Calm,-,N/A,,Clear,0,2014-02-28 00:15:00
6:35 PM,30.0,12.0,47,30.00,10.0,Calm,Calm,-,N/A,,Clear,0,2014-02-28 00:35:00
6:55 PM,28.6,13.6,54,30.00,10.0,Calm,Calm,-,N/A,,Clear,0,2014-02-28 00:55:00
7:15 PM,28.4,14.4,56,30.01,10.0,Calm,Calm,-,N/A,,Clear,0,2014-02-28 01:15:00
7:35 PM,28.0,14.7,57,30.01,10.0,Calm,Calm,-,N/A,,Clear,0,2014-02-28 01:35:00
7:55 PM,27.0,16.7,65,30.02,10.0,Calm,Calm,-,N/A,,Clear,0,2014-02-28 01:55:00
8:15 PM,25.9,15.4,65,30.02,10.0,Calm,Calm,-,N/A,,Clear,0,2014-02-28 02:15:00
8:35 PM,24.8,16.7,71,30.03,10.0,Calm,Calm,-,N/A,,Clear,0,2014-02-28 02:35:00
8:55 PM,25.0,14.7,65,30.04,10.0,Calm,Calm,-,N/A,,Clear,0,2014-02-28 02:55:00
9:15 PM,24.3,15.4,69,30.05,10.0,Calm,Calm,-,N/A,,Clear,0,2014-02-28 03:15:00
9:35 PM,24.4,14.2,65,30.05,10.0,Calm,Calm,-,N/A,,Clear,0,2014-02-28 03:35:00
9:55 PM,22.8,15.3,73,30.05,10.0,Calm,Calm,-,N/A,,Clear,0,2014-02-28 03:55:00
10:15 PM,23.0,15.8,74,30.06,10.0,Calm,Calm,-,N/A,,Clear,0,2014-02-28 04:15:00
10:30 PM,22.8,15.3,73,30.06,10.0,Calm,Calm,-,N/A,,Clear,0,2014-02-28 04:30:00
10:55 PM,23.4,15.6,72,30.07,10.0,Calm,Calm,-,N/A,,Clear,0,2014-02-28 04:55:00
11:15 PM,22.6,15.8,75,30.07,10.0,Calm,Calm,-,N/A,,Clear,0,2014-02-28 05:15:00
11:35 PM,22.1,15.3,75,30.07,10.0,NW,3.5,-,N/A,,Clear,310,2014-02-28 05:35:00
11:55 PM,22.3,15.3,74,30.07,10.0,Calm,Calm,-,N/A,,Clear,0,2014-02-28 05:55:00